FW4012 Weather Reports


Display with metric or nautical units.
time (UTC)temp
F
wind
direction
speed
MPH
gust
MPH
rain 1hr
in
rain 24hr
in
rain mn
in
humidity
%
barometer
mb
20260831230739 68 321 3.0 5.0 0.00 0.00 0.00 84 1014.7
20260831230251 68 355 3.0 5.0 0.00 0.00 0.00 85 1014.7
20260831225728 69 23 2.0 4.0 0.00 0.00 0.00 85 1014.8
20260831225310 69 305 1.0 4.0 0.00 0.00 0.00 85 1014.8
20260831224742 69 305 1.0 5.0 0.00 0.00 0.00 85 1014.7
20260831224249 69 338 3.0 6.0 0.00 0.00 0.00 85 1014.6
20260831223737 69 336 4.0 6.0 0.00 0.00 0.00 86 1014.6
20260831223224 69 302 1.0 5.0 0.00 0.00 0.00 86 1014.7
20260831222748 69 330 2.0 5.0 0.00 0.00 0.00 86 1014.6
20260831222239 68 335 4.0 5.0 0.00 0.00 0.00 86 1014.7
20260831221737 68 301 2.0 4.0 0.00 0.00 0.00 86 1014.6
20260831221242 68 333 2.0 4.0 0.00 0.00 0.00 86 1014.7
20260831220723 68 322 3.0 4.0 0.00 0.00 0.00 86 1014.6
20260831220246 68 330 1.0 3.0 0.00 0.00 0.00 85 1014.6
20260831215724 68 330 0.0 3.0 0.00 0.00 0.00 85 1014.7
20260831215242 68 330 0.0 3.0 0.00 0.00 0.00 85 1014.6
20260831214747 69 330 1.0 3.0 0.00 0.00 0.00 85 1014.6
20260831214243 69 330 2.0 4.0 0.00 0.00 0.00 85 1014.4
20260831213751 69 330 2.0 4.0 0.00 0.00 0.00 85 1014.5
20260831213227 69 336 2.0 4.0 0.00 0.00 0.00 84 1014.6
20260831212740 69 317 3.0 4.0 0.00 0.00 0.00 84 1014.5
20260831212248 69 327 0.0 2.0 0.00 0.00 0.00 84 1014.4
20260831211743 69 327 0.0 1.0 0.00 0.00 0.00 84 1014.4
20260831211247 69 327 0.0 4.0 0.00 0.00 0.00 84 1014.4
20260831210737 70 327 2.0 4.0 0.00 0.00 0.00 83 1014.4
20260831210226 70 315 0.0 4.0 0.00 0.00 0.00 83 1014.4
20260831205747 70 312 2.0 4.0 0.00 0.00 0.00 83 1014.4
20260831205228 70 304 1.0 3.0 0.00 0.00 0.00 83 1014.5
20260831204800 70 299 2.0 3.0 0.00 0.00 0.00 83 1014.4
20260831204252 70 299 1.0 2.0 0.00 0.00 0.00 83 1014.4
20260831203737 70 299 0.0 3.0 0.00 0.00 0.00 83 1014.3
20260831203228 70 299 1.0 3.0 0.00 0.00 0.00 83 1014.3
20260831202811 70 299 1.0 3.0 0.00 0.00 0.00 83 1014.3
20260831202258 70 299 1.0 3.0 0.00 0.00 0.00 82 1014.3
20260831201751 71 298 0.0 0.0 0.00 0.00 0.00 82 1014.1
20260831201240 71 298 0.0 0.0 0.00 0.00 0.00 81 1014.2
20260831200744 71 298 0.0 3.0 0.00 0.00 0.00 81 1014.0
20260831200225 71 298 0.0 3.0 0.00 0.00 0.00 81 1014.0
20260831195744 71 298 1.0 3.0 0.00 0.00 0.00 81 1013.9
20260831195234 71 298 2.0 3.0 0.00 0.00 0.00 81 1013.8
20260831194726 71 298 0.0 0.0 0.00 0.00 0.00 81 1013.7
20260831194248 71 298 0.0 0.0 0.00 0.00 0.00 81 1013.8
20260831193738 72 298 0.0 0.0 0.00 0.00 0.00 80 1013.6
20260831193239 72 298 0.0 0.0 0.00 0.00 0.00 80 1013.5
20260831192747 72 298 0.0 0.0 0.00 0.00 0.00 80 1013.5
20260831192223 72 298 0.0 0.0 0.00 0.00 0.00 79 1013.5
20260831191740 73 298 0.0 0.0 0.00 0.00 0.00 79 1013.5
20260831191250 73 298 0.0 0.0 0.00 0.00 0.00 79 1013.5
20260831190740 73 298 0.0 0.0 0.00 0.00 0.00 79 1013.5
20260831190224 73 298 0.0 0.0 0.00 0.00 0.00 78 1013.4
20260831185749 73 296 0.0 0.0 0.00 0.00 0.00 77 1013.4
20260831185241 74 296 0.0 0.0 0.00 0.00 0.00 77 1013.3
20260831184724 74 296 0.0 0.0 0.00 0.00 0.00 77 1013.3
20260831184248 75 296 0.0 0.0 0.00 0.00 0.00 76 1013.2
20260831183737 75 296 0.0 0.0 0.00 0.00 0.00 75 1013.1
20260831183232 76 296 0.0 0.0 0.00 0.00 0.00 75 1013.0
20260831182737 76 296 0.0 0.0 0.00 0.00 0.00 74 1013.1
20260831182238 77 296 0.0 0.0 0.00 0.00 0.00 72 1012.9
20260831181738 78 296 0.0 0.0 0.00 0.00 0.00 71 1012.8
20260831181238 79 296 0.0 0.0 0.00 0.00 0.00 69 1012.9
20260831180726 80 296 0.0 0.0 0.00 0.00 0.00 67 1012.8
20260831180237 80 296 0.0 0.0 0.00 0.00 0.00 67 1012.8
20260831175725 81 296 0.0 0.0 0.00 0.00 0.00 65 1012.8
20260831175250 82 296 0.0 0.0 0.00 0.00 0.00 63 1012.8
20260831174741 83 296 0.0 3.0 0.00 0.00 0.00 62 1012.8
20260831174245 83 296 1.0 3.0 0.00 0.00 0.00 61 1012.7
20260831173738 84 295 0.0 2.0 0.00 0.00 0.00 59 1012.7
20260831173250 85 295 1.0 3.0 0.00 0.00 0.00 59 1012.8
20260831172735 86 295 2.0 3.0 0.00 0.00 0.00 58 1012.8
20260831172225 87 263 2.0 3.0 0.00 0.00 0.00 57 1012.8
20260831171748 87 261 2.0 3.0 0.00 0.00 0.00 57 1012.7
20260831171240 87 261 2.0 3.0 0.00 0.00 0.00 56 1012.7
20260831170747 87 248 2.0 3.0 0.00 0.00 0.00 53 1012.7
20260831170228 87 240 1.0 3.0 0.00 0.00 0.00 52 1012.7
20260831165729 88 230 2.0 4.0 0.00 0.00 0.00 52 1012.7
20260831165243 88 234 2.0 4.0 0.00 0.00 0.00 51 1012.7
20260831164742 88 252 1.0 5.0 0.00 0.00 0.00 51 1012.8
20260831164223 88 221 3.0 5.0 0.00 0.00 0.00 51 1012.8
20260831163759 88 215 2.0 4.0 0.00 0.00 0.00 51 1012.7
20260831163247 88 254 3.0 5.0 0.00 0.00 0.00 51 1012.7
20260831162737 88 252 3.0 5.0 0.00 0.00 0.00 51 1012.8
20260831162239 88 247 3.0 5.0 0.00 0.00 0.00 49 1012.8
20260831161727 88 226 3.0 5.0 0.00 0.00 0.00 52 1012.8
20260831161238 88 284 3.0 6.0 0.00 0.00 0.00 51 1012.9
20260831160737 88 257 2.0 4.0 0.00 0.00 0.00 51 1013.0
20260831160225 87 257 2.0 4.0 0.00 0.00 0.00 53 1013.0
20260831155749 87 212 2.0 7.0 0.00 0.00 0.00 53 1013.0
20260831155237 87 233 3.0 7.0 0.00 0.00 0.00 51 1012.9
20260831154725 87 240 4.0 8.0 0.00 0.00 0.00 51 1013.0
20260831154307 88 236 4.0 8.0 0.00 0.00 0.00 51 1013.1
20260831153742 88 244 6.0 9.0 0.00 0.00 0.00 51 1013.1
20260831153247 88 229 5.0 9.0 0.00 0.00 0.00 53 1013.1
20260831152737 87 258 2.0 8.0 0.00 0.00 0.00 53 1013.1
20260831152226 86 263 4.0 8.0 0.00 0.00 0.00 54 1013.1
20260831151750 87 89 2.0 7.0 0.00 0.00 0.00 52 1013.1
20260831151231 87 213 4.0 6.0 0.00 0.00 0.00 53 1013.2
20260831150732 87 248 3.0 7.0 0.00 0.00 0.00 52 1013.2
20260831150224 88 198 2.0 7.0 0.00 0.00 0.00 53 1013.2
20260831145748 88 246 4.0 7.0 0.00 0.00 0.00 51 1013.3
20260831145243 88 267 5.0 7.0 0.00 0.00 0.00 52 1013.3
20260831144750 88 232 3.0 7.0 0.00 0.00 0.00 52 1013.3
20260831144227 88 200 3.0 8.0 0.00 0.00 0.00 53 1013.3
20260831143742 87 223 4.0 7.0 0.00 0.00 0.00 52 1013.2
20260831143243 87 161 3.0 8.0 0.00 0.00 0.00 52 1013.2
20260831142741 87 215 3.0 8.0 0.00 0.00 0.00 52 1013.2
20260831142233 87 254 3.0 9.0 0.00 0.00 0.00 52 1013.2
20260831141724 87 242 5.0 9.0 0.00 0.00 0.00 51 1013.2
20260831141251 87 263 4.0 9.0 0.00 0.00 0.00 53 1013.2
20260831140741 87 245 3.0 12.0 0.00 0.00 0.00 51 1013.3
20260831140249 87 259 8.0 12.0 0.00 0.00 0.00 50 1013.3
20260831135742 88 244 4.0 7.0 0.00 0.00 0.00 51 1013.3
20260831135306 87 159 3.0 8.0 0.00 0.00 0.00 55 1013.4
20260831134723 87 138 4.0 8.0 0.00 0.00 0.00 53 1013.4
20260831134239 87 230 1.0 7.0 0.00 0.00 0.00 56 1013.3
20260831133738 87 174 3.0 9.0 0.00 0.00 0.00 53 1013.4
20260831133237 88 155 3.0 10.0 0.00 0.00 0.00 52 1013.4
20260831132728 87 197 5.0 12.0 0.00 0.00 0.00 52 1013.4
20260831132225 87 149 4.0 8.0 0.00 0.00 0.00 55 1013.4
20260831131740 86 263 1.0 7.0 0.00 0.00 0.00 53 1013.4
20260831131223 86 111 1.0 9.0 0.00 0.00 0.00 52 1013.5
20260831130748 87 221 5.0 9.0 0.00 0.00 0.00 51 1013.7
20260831130255 87 151 3.0 9.0 0.00 0.00 0.00 52 1013.7
20260831125723 87 148 6.0 10.0 0.00 0.00 0.00 53 1013.7
20260831125245 87 162 4.0 10.0 0.00 0.00 0.00 53 1013.7
20260831124741 86 223 2.0 8.0 0.00 0.00 0.00 51 1013.7
20260831124247 86 256 4.0 9.0 0.00 0.00 0.00 52 1013.8
20260831123737 86 235 3.0 9.0 0.00 0.00 0.00 53 1013.7
20260831123237 85 336 2.0 6.0 0.00 0.00 0.00 53 1013.8
20260831122725 86 242 3.0 8.0 0.00 0.00 0.00 52 1013.9
20260831122308 86 262 3.0 9.0 0.00 0.00 0.00 51 1013.9
20260831121737 86 173 3.0 11.0 0.00 0.00 0.00 51 1013.9
20260831121225 86 211 4.0 9.0 0.00 0.00 0.00 53 1013.9
20260831120749 86 216 3.0 7.0 0.00 0.00 0.00 54 1013.9
20260831120239 86 257 2.0 8.0 0.00 0.00 0.00 52 1014.0
20260831115750 85 200 5.0 8.0 0.00 0.00 0.00 56 1014.0
20260831115306 85 227 2.0 9.0 0.00 0.00 0.00 53 1014.1
20260831114730 86 200 4.0 9.0 0.00 0.00 0.00 54 1014.1
20260831114230 85 163 6.0 9.0 0.00 0.00 0.00 55 1014.1
20260831113730 85 219 2.0 8.0 0.00 0.00 0.00 54 1014.2
20260831113313 85 229 4.0 13.0 0.00 0.00 0.00 55 1014.3
20260831112801 86 165 7.0 15.0 0.00 0.00 0.00 53 1014.4
20260831112251 85 128 1.0 8.0 0.00 0.00 0.00 56 1014.4
20260831111734 85 128 3.0 8.0 0.00 0.00 0.00 57 1014.5
20260831111227 85 229 4.0 8.0 0.00 0.00 0.00 56 1014.7
20260831110745 84 118 2.0 6.0 0.00 0.00 0.00 56 1014.7
20260831110225 83 228 2.0 6.0 0.00 0.00 0.00 59 1014.7
20260831105802 85 271 2.0 8.0 0.00 0.00 0.00 53 1014.7
20260831105310 85 122 3.0 8.0 0.00 0.00 0.00 54 1014.6
20260831104742 84 188 4.0 6.0 0.00 0.00 0.00 55 1014.7
20260831104242 84 15 1.0 6.0 0.00 0.00 0.00 54 1014.7
20260831103727 83 245 2.0 8.0 0.00 0.00 0.00 54 1014.6
20260831103241 84 248 3.0 8.0 0.00 0.00 0.00 57 1014.7
20260831102740 83 242 3.0 8.0 0.00 0.00 0.00 55 1014.7
20260831102246 83 134 3.0 7.0 0.00 0.00 0.00 56 1014.7
20260831101737 83 252 3.0 10.0 0.00 0.00 0.00 57 1014.7
20260831101234 83 263 6.0 10.0 0.00 0.00 0.00 55 1014.7
20260831100734 83 103 1.0 5.0 0.00 0.00 0.00 54 1014.7
20260831100243 83 215 1.0 5.0 0.00 0.00 0.00 56 1014.7
20260831095723 83 207 1.0 7.0 0.00 0.00 0.00 56 1014.7
20260831095238 84 182 1.0 5.0 0.00 0.00 0.00 58 1014.8
20260831094745 83 187 2.0 8.0 0.00 0.00 0.00 56 1014.8
20260831094235 83 240 1.0 4.0 0.00 0.00 0.00 56 1014.8
20260831093735 82 170 2.0 5.0 0.00 0.00 0.00 62 1014.8
20260831093226 82 107 3.0 5.0 0.00 0.00 0.00 62 1014.8
20260831092744 81 134 0.0 4.0 0.00 0.00 0.00 59 1015.0
20260831092240 81 341 1.0 7.0 0.00 0.00 0.00 61 1014.9
20260831091749 81 259 1.0 7.0 0.00 0.00 0.00 61 1014.9
20260831091236 80 231 1.0 5.0 0.00 0.00 0.00 64 1014.9
20260831090750 80 126 2.0 6.0 0.00 0.00 0.00 65 1014.9
20260831090258 80 67 3.0 6.0 0.00 0.00 0.00 63 1014.9
20260831085741 80 84 2.0 7.0 0.00 0.00 0.00 63 1015.0
20260831085242 80 121 3.0 7.0 0.00 0.00 0.00 65 1014.8
20260831084737 79 124 2.0 6.0 0.00 0.00 0.00 66 1014.9
20260831084301 79 117 3.0 6.0 0.00 0.00 0.00 66 1014.8
20260831083728 79 155 1.0 5.0 0.00 0.00 0.00 67 1014.8
20260831083228 78 118 3.0 4.0 0.00 0.00 0.00 67 1014.8
20260831082750 78 126 3.0 4.0 0.00 0.00 0.00 68 1014.9
20260831082240 78 130 1.0 4.0 0.00 0.00 0.00 67 1014.8
20260831081740 78 134 1.0 4.0 0.00 0.00 0.00 68 1014.8
20260831081249 78 146 2.0 5.0 0.00 0.00 0.00 67 1014.8
20260831080734 78 130 1.0 4.0 0.00 0.00 0.00 68 1014.7
20260831080225 78 44 0.0 3.0 0.00 0.00 0.00 69 1014.8
20260831075758 77 273 1.0 6.0 0.00 0.00 0.00 68 1014.7
20260831075239 77 355 2.0 6.0 0.00 0.00 0.00 69 1014.8
20260831074752 77 319 2.0 5.0 0.00 0.00 0.00 68 1014.6
20260831074241 77 319 3.0 4.0 0.00 0.00 0.00 70 1014.8
20260831073741 77 355 2.0 5.0 0.00 0.00 0.00 69 1014.7
20260831073250 76 292 2.0 5.0 0.00 0.00 0.00 69 1014.7
20260831072739 76 5 2.0 6.0 0.00 0.00 0.00 70 1014.4
20260831072239 76 9 2.0 8.0 0.00 0.00 0.00 72 1014.5
20260831071725 75 17 1.0 8.0 0.00 0.00 0.00 71 1014.5
20260831071248 75 33 3.0 5.0 0.00 0.00 0.00 71 1014.5
20260831070737 75 333 1.0 6.0 0.00 0.00 0.00 71 1014.6
20260831070237 75 336 2.0 6.0 0.00 0.00 0.00 71 1014.6
20260831065735 75 340 4.0 6.0 0.00 0.00 0.00 73 1014.6
20260831065237 74 331 1.0 4.0 0.00 0.00 0.00 73 1014.6
20260831064723 74 355 0.0 0.0 0.00 0.00 0.00 75 1014.6
20260831064241 74 355 0.0 2.0 0.00 0.00 0.00 75 1014.5
20260831063748 74 355 0.0 2.0 0.00 0.00 0.00 77 1014.6
20260831063240 73 355 0.0 5.0 0.00 0.00 0.00 77 1014.6
20260831062744 73 355 2.0 5.0 0.00 0.00 0.00 78 1014.5
20260831062240 72 326 1.0 3.0 0.00 0.00 0.00 80 1014.6
20260831061739 72 326 1.0 2.0 0.00 0.00 0.00 80 1014.6
20260831061226 71 323 0.0 2.0 0.00 0.00 0.00 82 1014.6
20260831060738 71 323 0.0 2.0 0.00 0.00 0.00 83 1014.6
20260831060246 70 322 0.0 3.0 0.00 0.00 0.00 84 1014.6
20260831055746 69 322 2.0 3.0 0.00 0.00 0.00 85 1014.5
20260831055234 69 323 2.0 3.0 0.00 0.00 0.00 86 1014.6
20260831054729 68 323 2.0 3.0 0.00 0.00 0.00 87 1014.5
20260831054303 67 322 1.0 3.0 0.00 0.00 0.00 87 1014.6
20260831053734 67 322 1.0 3.0 0.00 0.00 0.00 87 1014.5
20260831053229 66 322 1.0 2.0 0.00 0.00 0.00 87 1014.5
20260831052739 66 322 1.0 3.0 0.00 0.00 0.00 87 1014.5
20260831052252 66 322 2.0 5.0 0.00 0.00 0.00 87 1014.4
20260831051748 66 321 1.0 5.0 0.00 0.00 0.00 87 1014.3
20260831051238 66 297 2.0 5.0 0.00 0.00 0.00 87 1014.3
20260831050738 66 314 1.0 3.0 0.00 0.00 0.00 87 1014.3
20260831050238 66 314 2.0 4.0 0.00 0.00 0.00 87 1014.3
20260831045745 66 315 2.0 4.0 0.00 0.00 0.00 87 1014.2
20260831045239 66 296 1.0 3.0 0.00 0.00 0.00 87 1014.3
20260831044751 66 289 1.0 3.0 0.00 0.00 0.00 86 1014.2
20260831044237 66 344 1.0 3.0 0.00 0.00 0.00 86 1014.2
20260831043743 66 344 0.0 3.0 0.00 0.00 0.00 86 1014.2
20260831043233 66 344 1.0 2.0 0.00 0.00 0.00 86 1014.2
20260831042729 66 344 0.0 3.0 0.00 0.00 0.00 86 1014.2
20260831042237 66 344 1.0 3.0 0.00 0.00 0.00 86 1014.3
20260831041729 66 329 1.0 6.0 0.00 0.00 0.00 86 1014.4
20260831041245 66 329 3.0 6.0 0.00 0.00 0.00 86 1014.4
20260831040734 66 314 2.0 4.0 0.00 0.00 0.00 86 1014.3
20260831040225 67 306 0.0 0.0 0.00 0.00 0.00 86 1014.3
20260831035751 67 306 0.0 0.0 0.00 0.00 0.00 85 1014.3
20260831035259 67 306 0.0 0.0 0.00 0.00 0.00 85 1014.2
20260831034738 67 306 0.0 1.0 0.00 0.00 0.00 85 1014.2
20260831034224 67 306 0.0 2.0 0.00 0.00 0.00 85 1014.2
20260831033724 68 306 1.0 2.0 0.00 0.00 0.00 85 1014.2
20260831033240 68 306 0.0 2.0 0.00 0.00 0.00 84 1014.3
20260831032751 68 306 1.0 2.0 0.00 0.00 0.00 84 1014.4
20260831032306 68 306 0.0 0.0 0.00 0.00 0.00 83 1014.5
20260831031740 69 306 0.0 0.0 0.00 0.00 0.00 83 1014.4
20260831031228 69 306 0.0 0.0 0.00 0.00 0.00 83 1014.4
20260831030740 69 306 0.0 0.0 0.00 0.00 0.00 83 1014.5
20260831030239 69 306 0.0 1.0 0.00 0.00 0.00 83 1014.5
20260831025748 69 306 0.0 2.0 0.00 0.00 0.00 83 1014.5
20260831025251 69 306 1.0 4.0 0.00 0.00 0.00 83 1014.6
20260831024800 69 306 2.0 5.0 0.00 0.00 0.00 83 1014.5
20260831024223 68 301 3.0 5.0 0.00 0.00 0.00 84 1014.6
20260831023745 68 337 3.0 4.0 0.00 0.00 0.00 84 1014.5
20260831023236 68 323 3.0 5.0 0.00 0.00 0.00 85 1014.5
20260831022751 68 342 3.0 4.0 0.00 0.00 0.00 85 1014.5
20260831022235 68 320 3.0 4.0 0.00 0.00 0.00 86 1014.5
20260831021734 67 319 2.0 3.0 0.00 0.00 0.00 86 1014.4
20260831021225 67 319 1.0 3.0 0.00 0.00 0.00 86 1014.4
20260831020740 67 319 0.0 0.0 0.00 0.00 0.00 86 1014.5
20260831020223 68 319 0.0 0.0 0.00 0.00 0.00 85 1014.5
20260831015739 68 319 0.0 0.0 0.00 0.00 0.00 85 1014.5
20260831015245 68 319 0.0 0.0 0.00 0.00 0.00 85 1014.5
20260831014758 68 319 0.0 0.0 0.00 0.00 0.00 85 1014.6
20260831014228 68 319 0.0 2.0 0.00 0.00 0.00 85 1014.7
20260831013740 68 319 0.0 2.0 0.00 0.00 0.00 84 1014.6
20260831013248 69 319 0.0 3.0 0.00 0.00 0.00 85 1014.7
20260831012741 69 319 2.0 3.0 0.00 0.00 0.00 85 1014.7
20260831012250 69 319 1.0 3.0 0.00 0.00 0.00 85 1014.7
20260831011739 69 319 2.0 3.0 0.00 0.00 0.00 84 1014.8
20260831011251 69 321 1.0 3.0 0.00 0.00 0.00 84 1014.7
20260831010726 69 321 1.0 3.0 0.00 0.00 0.00 84 1014.7
20260831010237 69 321 0.0 1.0 0.00 0.00 0.00 84 1014.6
20260831005749 69 321 0.0 1.0 0.00 0.00 0.00 84 1014.6
20260831005237 69 321 0.0 3.0 0.00 0.00 0.00 84 1014.6
20260831004748 69 321 1.0 3.0 0.00 0.00 0.00 83 1014.6
20260831004238 69 321 2.0 4.0 0.00 0.00 0.00 83 1014.7
20260831003725 70 330 3.0 4.0 0.00 0.00 0.00 83 1014.6
20260831003306 70 321 2.0 4.0 0.00 0.00 0.00 83 1014.6
20260831002735 70 319 0.0 1.0 0.00 0.00 0.00 83 1014.6
20260831002234 70 319 0.0 1.0 0.00 0.00 0.00 83 1014.7
20260831001746 70 319 0.0 1.0 0.00 0.00 0.00 83 1014.7
20260831001235 70 319 0.0 0.0 0.00 0.00 0.00 83 1014.8
20260831000751 70 319 0.0 2.0 0.00 0.00 0.00 83 1014.8
20260831000237 70 319 1.0 2.0 0.00 0.00 0.00 82 1014.9
20260830235733 70 319 0.0 1.0 0.00 0.00 0.00 82 1014.9
20260830235227 70 320 0.0 1.0 0.00 0.00 0.00 82 1014.8
20260830234802 70 320 0.0 3.0 0.00 0.00 0.00 83 1014.9
20260830234240 70 320 0.0 3.0 0.00 0.00 0.00 82 1015.0
20260830233723 70 319 1.0 3.0 0.00 0.00 0.00 82 1014.9
20260830233239 70 319 2.0 3.0 0.00 0.00 0.00 82 1014.9
20260830232809 70 319 1.0 2.0 0.00 0.00 0.00 82 1015.0
20260830232231 70 319 0.0 2.0 0.00 0.00 0.00 82 1014.9
20260830231724 70 319 0.0 2.0 0.00 0.00 0.00 83 1014.9
20260830231245 70 319 1.0 2.0 0.00 0.00 0.00 82 1014.9